Home   Weather   Ulm   Past weeks

Flag for Germany Past Weather in Ulm, Baden-Württemberg, Germany — Yesterday and Last 2 Weeks

Now
81 °F

Passing clouds.


Feels Like: 80 °F
Forecast: 57 / 83 °F
Wind: 3 mph from West

Location: Laupheim Airport

Current Time: May 28, 2017 at 2:36:34 pm

Latest Report: May 28, 2017 at 1:20 pm


Visibility: N/A

Pressure: 30.12 "Hg

Humidity: 39%

Dew Point: 54 °F

Location of UlmLocation

Past Weather in Ulm — Graph

°F

Ulm Temperature Yesterday

Maximum temperature yesterday: 79 °F (at 3:20 pm)
Minimum temperature yesterday: 50 °F (at 5:20 am)
Average temperature yesterday: 67 °F

High & Low Weather Summary for the Past Weeks

 TemperatureHumidityPressure
High81 °F (May 28, 1:20 pm)100% (May 15, 4:20 am)30.45 "Hg (May 15, 4:20 am)
Low37 °F (May 20, 5:36 am)30% (May 27, 5:20 pm)29.80 "Hg (May 19, 3:20 am)
Average60 °F68%30.16 "Hg
* Reported May 13 1:20 pm — May 28 1:20 pm, Ulm. Weather by CustomWeather, © 2017

Note: Actual official high and low records may vary slightly from our data, if they occured in-between our weather recording intervals... More about our weather records

Advertising

Ulm Weather History for the Previous 24 Hours

Scroll right to see more
 ConditionsComfort  
Time TempWeatherWind HumidityBarometerVisibility
1:20 pm
Sun, May 28
81 °FPassing clouds.3 mph39%30.12 "HgN/A
12:20 pm79 °FPassing clouds.2 mph45%30.15 "HgN/A
11:20 am75 °FPassing clouds.5 mph50%30.15 "HgN/A
10:20 am70 °FPassing clouds.2 mph60%30.15 "HgN/A
9:20 am66 °FPassing clouds.2 mph64%30.18 "HgN/A
8:20 am63 °FPassing clouds.2 mph73%30.15 "HgN/A
7:20 am57 °FPassing clouds.No wind82%30.15 "HgN/A
6:20 am54 °FPassing clouds.1 mph88%30.15 "HgN/A
5:20 am54 °FPassing clouds.1 mph82%30.15 "HgN/A
4:20 am54 °FFog.1 mph88%30.15 "HgN/A
3:20 am55 °FCool.1 mph82%30.15 "HgN/A
2:20 am57 °FCool.2 mph77%30.15 "HgN/A
1:20 am59 °FCool.2 mph72%30.15 "HgN/A
12:20 am61 °FCool.1 mph68%30.15 "HgN/A
11:20 pm
Sat, May 27
66 °FMild.6 mph56%30.15 "HgN/A
10:20 pm68 °FPassing clouds.7 mph49%30.15 "HgN/A
9:20 pm72 °FPassing clouds.7 mph44%30.12 "HgN/A
8:20 pm75 °FPassing clouds.8 mph39%30.12 "HgN/A
7:20 pm77 °FPassing clouds.7 mph39%30.12 "HgN/A
6:20 pm79 °FPleasantly warm.7 mph30%30.12 "HgN/A
5:20 pm79 °FPleasantly warm.3 mph30%30.12 "HgN/A
4:20 pm79 °FPleasantly warm.6 mph32%30.12 "HgN/A
3:20 pm79 °FPleasantly warm.6 mph32%30.12 "HgN/A
2:20 pm77 °FPleasantly warm.6 mph39%30.15 "HgN/A
Weather by CustomWeather, © 2017

See weather overviewHow to use our weather pages